Location: Unspecified
(0.0000°N, 0.0000°E)
Time: 01:20:08
(UTC+00:00)

N. Korean satellite - Pass Details

Date: 14 January 2021
Orbit: 453 x 502 km, 97.2° (Epoch: 16 January)

Event Time Altitude Azimuth Distance (km) Brightness Sun altitude
Rises 05:08:01 0° 8° (N) 2,473 10.0 -14.2°
Reaches altitude 10° 05:10:04 10° 6° (N) 1,596 9.0 -13.7°
Maximum altitude 05:13:28 72° 281° (WNW) 482 6.3 -12.9°
Drops below altitude 10° 05:16:52 10° 196° (SSW) 1,589 9.2 -12.1°
Sets 05:18:54 0° 194° (SSW) 2,462 10.3 -11.7°
